Regional Weather Roundup
Issued by NWS

Home | Current Version | Previous Version | Graphics & Text | Print | Product List | Glossary On
Versions: 1 2 3 4 5 6 7 8 9 10 11 12 13 14 15 16 17 18 19 20 21 22 23 24 25 26 27 28 29 30 31 32 33 34 35 36 37 38 39 40 41 42 43 44 45 46 47 48 49 50
000
ASUS43 KDTX 200410
RWRMI
MICHIGAN HOURLY REGIONAL WEATHER ROUNDUP
NATIONAL WEATHER SERVICE DETROIT/PONTIAC MI
1200 AM EDT SUN MAY 20 2018

NOTE: "FAIR" INDICATES FEW OR NO CLOUDS BELOW 12,000 FEET WITH NO
SIGNIFICANT WEATHER AND/OR OBSTRUCTION TO VISIBILITY.

MIZ047>049-052>055-059>063-066>070-074>076-081>083-200500-
SOUTHEAST LOWER MICHIGAN

CITY           SKY/WX    TMP DP  RH WIND       PRES   REMARKS
ADRIAN         CLOUDY    63  59  87 W8        29.96R
ALMA           CLOUDY    58  57  94 NW8G16    29.98R
ANN ARBOR      CLOUDY    63  59  87 W8        29.94R
BAD AXE        LGT RAIN  54  54 100 N7        29.93R
CARO           CLOUDY    60  57  91 NW5       29.92R
DETROIT CITY   CLOUDY    67  60  78 NW9       29.91R
DETROIT        CLOUDY    66  59  78 W10       29.93R
FLINT          LGT RAIN  60  59  96 NW13      29.94R FOG
GROSSE ILE     CLOUDY    65  63  93 W3        29.92R
HILLSDALE      MOCLDY    59  54  82 W8G16     29.97R
HOWELL         DRIZZLE   60  59  94 NW6       29.94R

CITY           SKY/WX    TMP DP  RH WIND       PRES   REMARKS
JACKSON        CLOUDY    61  57  87 W5        29.96R
LAMBERTVILLE   FAIR      65  60  84 CALM      29.95R
LANSING        CLOUDY    59  56  89 W9        29.96R
LAPEER         CLOUDY    61  60  97 N6        29.92R FOG
MASON          CLOUDY    60  56  85 NW6       29.96R
MONROE         CLOUDY    64  62  93 W7        29.93R
MT. CLEMENS    DRIZZLE   66  66 100 W8          N/A
PONTIAC        CLOUDY    63  61  93 NW12      29.92R
PORT HOPE        N/A     47  47 100 NW7       29.92R
PORT HURON     CLOUDY    61  59  94 N7        29.91R FOG
TRI CITIES     CLOUDY    60  58  92 NW10      29.95R
MIDLAND        CLOUDY    58  57  96 NW9       29.94R
TROY           CLOUDY    67  62  83 W6        29.93R
SAGINAW HB     CLOUDY    61  57  88 NW9       29.93R
$$
MIZ043>046-050>051-056>058-064>065-071>073-077>080-200500-
SOUTHWEST LOWER MICHIGAN

CITY           SKY/WX    TMP DP  RH WIND       PRES   REMARKS
BATTLE CREEK   CLOUDY    57  53  86 W9        29.99R
BENTON HARBOR  FAIR      56  52  86 CALM      30.01R
BIG RAPIDS     CLOUDY    55  51  88 N8        30.01R
COLDWATER      CLOUDY    58  55  87 W6        29.99R
FREMONT        CLOUDY    54  53  96 N5        30.01R
HOLLAND        CLOUDY    51  49  92 NW8       30.02R FOG
GRAND RAPIDS   CLOUDY    57  53  86 NW9       29.99R
IONIA          CLOUDY    58  55  89 W8        29.97R
KALAMAZOO      CLOUDY    58  53  84 NW9       30.00R
LUDINGTON      CLOUDY    47  42  82 N8        30.06R
MARSHALL       CLOUDY    57  55  95 W6        29.98R
MOUNT PLEASANT CLOUDY    59  57  94 NW7       29.97R
MUSKEGON       CLOUDY    53  49  86 N10       30.01R
SOUTH HAVEN    CLOUDY    55  51  87 NW5       30.02R
$$
MIZ016>042-200500-
NORTHERN LOWER MICHIGAN

CITY           SKY/WX    TMP DP  RH WIND       PRES   REMARKS
ALPENA         CLOUDY    51  51 100 NW8       29.94R
BEAVER ISLAND  CLOUDY    45  40  84 NW7       30.02R
BELLAIRE       FAIR      46  40  82 W3        30.02R
CADILLAC       CLOUDY    48  43  84 N6        30.01R
CHARLEVOIX     CLOUDY    44  43  99 W8        30.04R
FRANKFORT      CLOUDY    46  42  86 N6        30.06R
GAYLORD        FAIR      47  46  97 W8        29.98R
GRAYLING       FAIR      50  46  87 NW6       29.97R
HARBOR SPRINGS CLOUDY    44  42  92 W3        29.99R
HOUGHTON LAKE  CLOUDY    50  49  96 NW10      29.97S FOG
MANISTEE       CLOUDY    47  42  83 NW6       30.06R
OSCODA         CLOUDY    54  52  92 NW13      29.93R
PELLSTON       CLOUDY    45  40  82 NW15      29.99R
ROGERS CITY    MOCLDY    51  49  95 NW8       29.96R
TRAVERSE CITY  CLOUDY    47  39  74 N10       30.03S
$$
MIZ007>008-015-200500-
EASTERN UPPER MICHIGAN

CITY           SKY/WX    TMP DP  RH WIND       PRES   REMARKS
KINROSS        CLOUDY    43  39  86 NW12      29.97R
MACKINAC ISLAN CLOUDY    46  43  87 NW12      29.97R
NEWBERRY       FAIR      40  39  97 NW9       30.01R WCI  34
S. S. MARIE    CLOUDY    43  39  86 W9        29.97R
MUNISING         N/A     39  38  96 NW15      30.09R WCI  31
$$
MIZ004>006-011>014-085-200500-
CENTRAL UPPER MICHIGAN

CITY           SKY/WX    TMP DP  RH WIND       PRES   REMARKS
MANISTIQUE     FAIR      40  38  95 N12G18    30.04R WCI  32
ESCANABA       CLOUDY    43  36  76 N16G24    30.09R
SAWYER-GWINN   CLOUDY    38  34  84 N26G33    30.11S WCI  27
$$
MIZ001>003-009>011-084-200500-
WESTERN UPPER MICHIGAN

CITY           SKY/WX    TMP DP  RH WIND       PRES   REMARKS
IRON MOUNTAIN  CLOUDY    44  37  76 N13G21    30.12R
HOUGHTON       FAIR      39  32  76 N6        30.18R WCI  35
COPPER HARBOR    N/A     40  36  86 N8        30.19R WCI  34
IRONWOOD       FAIR      41  35  79 E8        30.21R
$$

ABBREVIATIONS USED IN REMARKS
   TC - TEMPERATURE IN CELSIUS
  WCI - WIND CHILL INDEX
   HX - HEAT INDEX
  VSB - VISIBILITY




USA.gov is the U.S. government's official web portal to all federal, state and local government web resources and services.